CASE2 Weather Reports


time (UTC)temp
C
wind
direction
speed
KPH
gust
KPH
rain 1hr
cm
rain 24hr
cm
rain mn
cm
humidity
%
barometer
mb
20260506131522 11 244 0.0 6.4 0.00 0.00 0.00 71 1010.4
20260506130017 12 17 0.0 6.4 0.00 0.00 0.00 69 1010.3
20260506124514 12 333 0.0 3.2 0.00 0.00 0.00 66 1010.3
20260506123016 13 339 0.0 4.8 0.00 0.00 0.00 63 1010.3
20260506121513 14 313 1.6 8.0 0.00 0.00 0.00 60 1010.2
20260506120010 13 355 0.0 6.4 0.00 0.00 0.00 62 1010.3
20260506114559 13 307 0.0 6.4 0.00 0.00 0.00 60 1010.4
20260506113106 13 40 0.0 6.4 0.00 0.00 0.00 62 1010.4
20260506111556 13 336 0.0 8.0 0.00 0.00 0.00 61 1010.4
20260506104608 12 355 0.0 4.8 0.00 0.00 0.00 63 1010.5
20260506103050 12 346 0.0 6.4 0.00 0.00 0.00 65 1010.5
20260506101554 12 299 1.6 6.4 0.00 0.00 0.00 63 1010.5
20260506100045 11 290 0.0 6.4 0.00 0.00 0.00 65 1010.5
20260506094527 11 313 0.0 4.8 0.00 0.00 0.00 64 1010.6
20260506093025 11 304 0.0 6.4 0.00 0.00 0.00 65 1010.5
20260506091517 11 360 0.0 4.8 0.00 0.00 0.00 63 1010.6
20260506090011 11 296 0.0 4.8 0.00 0.00 0.00 63 1010.6
20260506084515 10 317 0.0 4.8 0.00 0.00 0.00 61 1010.5
20260506083005 10 360 0.0 6.4 0.00 0.00 0.00 61 1010.5
20260506081506 10 30 0.0 6.4 0.00 0.00 0.00 62 1010.4
20260506073100 8 42 0.0 4.8 0.00 0.00 0.00 65 1010.5
20260506071541 8 30 1.6 6.4 0.00 0.00 0.00 62 1010.5
20260506061517 8 60 0.0 6.4 0.00 0.00 0.00 55 1010.8
20260506044506 7 53 0.0 4.8 0.00 0.00 0.00 58 1010.8
20260506043049 7 49 0.0 3.2 0.00 0.00 0.00 60 1010.9
20260506041559 7 47 0.0 4.8 0.00 0.00 0.00 61 1010.8
20260506040048 6 79 0.0 3.2 0.00 0.00 0.00 62 1010.7
20260506034546 6 53 0.0 3.2 0.00 0.00 0.00 62 1010.7
20260506033042 6 32 0.0 1.6 0.00 0.00 0.00 62 1010.7
20260506031541 7 360 0.0 1.6 0.00 0.00 0.00 61 1010.8
20260506030038 7 89 0.0 3.2 0.00 0.00 0.00 59 1010.9
20260506024540 7 26 0.0 8.0 0.00 0.00 0.00 58 1010.9
20260506023023 7 109 0.0 8.0 0.00 0.00 0.00 58 1011.0
20260506021523 7 82 0.0 6.4 0.00 0.00 0.00 57 1011.2
20260506020024 7 45 0.0 8.0 0.00 0.00 0.00 58 1011.3
20260506014529 7 347 0.0 8.0 0.00 0.00 0.00 59 1011.3
20260506013027 8 360 0.0 11.3 0.00 0.00 0.00 56 1011.3
20260506011521 8 360 0.0 9.7 0.00 0.00 0.00 55 1011.2
20260506010025 8 47 0.0 6.4 0.00 0.00 0.00 54 1011.1
20260506004533 8 23 0.0 9.7 0.00 0.00 0.00 53 1010.9
20260506003006 8 77 0.0 6.4 0.00 0.00 0.00 54 1010.9
20260506001506 8 66 1.6 8.0 0.00 0.00 0.00 56 1010.9
20260506000015 8 62 0.0 6.4 0.00 0.00 0.00 57 1010.8
20260505234512 8 346 0.0 8.0 0.00 0.00 0.00 60 1010.8
20260505233003 8 68 0.0 6.4 0.00 0.00 0.00 61 1010.9
20260505231503 8 360 0.0 6.4 0.00 0.00 0.00 65 1010.8
20260505230001 8 360 0.0 11.3 0.00 0.00 0.00 67 1010.9
20260505224501 8 360 0.0 6.4 0.00 0.00 0.00 70 1010.9
20260505223056 8 13 1.6 8.0 0.00 0.00 0.00 69 1010.9
20260505221553 8 331 0.0 4.8 0.00 0.00 0.00 71 1011.1
20260505220050 8 22 0.0 6.4 0.00 0.00 0.00 71 1011.1
20260505214559 8 360 0.0 8.0 0.00 0.00 0.00 71 1011.2
20260505213055 8 29 0.0 1.6 0.00 0.00 0.00 72 1011.2
20260505211546 8 88 0.0 4.8 0.00 0.00 0.00 73 1011.3
20260505210051 8 360 0.0 4.8 0.00 0.00 0.00 72 1011.3
20260505204545 8 360 0.0 3.2 0.00 0.00 0.00 74 1011.2
20260505203042 8 360 0.0 1.6 0.00 0.00 0.00 75 1011.3
20260505201546 8 360 0.0 4.8 0.00 0.00 0.00 74 1011.3
20260505200033 8 360 0.0 3.2 0.00 0.00 0.00 73 1011.2
20260505194534 8 346 0.0 3.2 0.00 0.00 0.00 73 1011.2
20260505193043 8 360 0.0 4.8 0.00 0.00 0.00 74 1011.2
20260505191541 8 30 0.0 0.0 0.00 0.00 0.00 73 1011.1
20260505190036 8 33 0.0 3.2 0.00 0.00 0.00 72 1011.2
20260505184530 8 360 0.0 6.4 0.00 0.00 0.00 71 1011.1
20260505183017 8 360 0.0 4.8 0.00 0.00 0.00 70 1011.0
20260505181517 9 11 0.0 1.6 0.00 0.00 0.00 68 1010.9
20260505180100 9 360 0.0 3.2 0.00 0.00 0.00 67 1010.9
20260505174600 10 292 0.0 6.4 0.00 0.00 0.00 62 1010.9
20260505173100 10 344 0.0 4.8 0.00 0.00 0.00 63 1011.0
20260505171559 10 331 0.0 4.8 0.00 0.00 0.00 62 1011.1
20260505170108 10 360 0.0 8.0 0.00 0.00 0.00 62 1011.1
20260505164557 10 305 0.0 6.4 0.00 0.00 0.00 59 1011.1
20260505163104 11 348 0.0 4.8 0.00 0.00 0.00 59 1011.0
20260505161554 11 360 1.6 9.7 0.00 0.00 0.00 60 1011.2
20260505153039 11 360 0.0 8.0 0.00 0.00 0.00 64 1011.3
20260505151538 11 305 1.6 9.7 0.00 0.00 0.00 62 1011.4